THOR ABLESTAR R/B, 669

Orbit data source: Space-Track

THOR ABLESTAR R/B, 669 is space debris in LEO originally from a launch on Sat, 28 Sep 1963 UTC launched from the Air Force Western Test Range (AFWTR). Debris objects in space refer to the collection of defunct objects orbiting the Earth. Examples of debris include non-operational satellites, rocket bodies, and fragments generated from explosions, collisions, or faulty payload assembly.

Loading next visibility...
Identifier
669, 1963-038A
Orbit
LEO
Country
Flag of USUS
Related business
Manufacturer
Aerojet
Mission
Spacecraft
Bus & Motor
ABLESTAR, Unknown motor
Mass
~600 kg wet, 600 kg dry
Launch date (UTC)
1963-09-28 (62 years ago)
Launch vehicle
Unknown
Launch site
Air Force Western Test Range (AFWTR)
Object type
Payload
Rocket body
Debris
Shape & HBR
Unknown
Radar Cross Section
Large (>1 m²)

Expand to show TLE details & history
Last TLE update: 11 hours ago

TLE from 11 hours ago
0 THOR ABLESTAR R/B
1 00669U 63038A   25310.10614536  .00000052  00000-0  71774-4 0  9995
2 00669  89.9806 334.6788 0027487  40.5408  18.7687 13.46116065 49699
Epoch: 2025-11-06T02:32Z
TLE epoch observation values (Epoch: 2025-11-06T02:32:50.959Z)
Latitude
59.5017°
Longitude
-109.06999°
Altitude
1,077.335 km
Speed
7.328 km/s
True Right ascension
22h 18m 50s
True Declination
59° 21' 27"
Sunlit
Object was in daylight at epoch
Visualization orbit readout
Latitude
Unknown
Longitude
Unknown
Altitude
Unknown
Speed
Unknown
Apparent Right ascension
Unknown
Apparent Declination
Unknown
Sunlit
N/A
Visualization observer readout
Local Sidereal Time
10:03:07
Azimuth
Unknown
Elevation
Unknown
Doppler factor
Unknown
Orbital elements
Apogee altitude
1,104.148 km
Perigee altitude
1,063.128 km
Semi-major axis
7,461.775 km
Eccentricity
0.00275
Inclination
89.9806°
RAAN
334.6788°
Arg. of periapsis
40.5408°
True anomaly
18.87037°
Mean anomaly
18.7687°
Eccentric anomaly
18.8195°
Mean motion
3.36729 °/min
Orbital period
106.91 mins
BSTAR
0.000071774
Loading maneuver chart data...
Computing Atmospheric mass density...

Documentation

Showing up to 5 results
|